[[{"header":{"parameterUnit":"m.s-1","parameterCategory":2,"la1":30.2991,"la2":30.254,"lo1":-89.0895,"lo2":-89.0444,"dy":0.0017,"dx":0.0017,"nx":28,"ny":28,"refTime":"2024-03-21T21:00:00:Z","depth":"0","parameterNumber":2,"parameterNumberName":"U-component_of_CURRENTS"},"data":[0,0,0,0,0,0,0,0,0,0,0,0,0,0,0,0,0,0,0,0,0,0,0,0,0,0,0,0,0,0,0,0,0,0,0,0,0,0,0,0,0,0,0,0,0,0,0,0,0,0,0,0,0,0,0,0,0,0,0.2957,0.2957,0,0.2925,0.2924,0.2923,0.288,0.2881,0.2881,0.2881,0.2808,0.2806,0.2804,0,0,0,0,0,0,0,0,0,0,0,0,0,0.2994,0.2992,0.2957,0.2957,0.2957,0.2925,0.2924,0.2923,0.288,0.2881,0.2881,0.2881,0.2809,0.2806,0.2804,0,0,0,0,0,0,0,0,0,0,0,0,0,0.2963,0.2992,0.2957,0.2939,0.2937,0.2926,0.2924,0.2923,0.288,0.2881,0.2881,0.2881,0.281,0.2807,0.2804,0.2783,0,0,0.2795,0.2793,0,0,0,0,0,0,0,0,0.2965,0.2961,0.2941,0.294,0.2939,0.2914,0.2911,0.2877,0.288,0.2893,0.2881,0.2881,0.2845,0.2839,0.2822,0.278,0.2777,0.2794,0.2793,0.2791,0.279,0,0,0,0,0,0,0,0.2967,0.2962,0.2936,0.2942,0.294,0.2938,0.2932,0.2904,0.2862,0.2892,0.2891,0.2901,0.2843,0.2825,0.282,0.2776,0.2794,0.2792,0.279,0.2789,0.274,0.274,0,0,0,0,0,0,0.2987,0.2964,0.2937,0.2936,0.2962,0.2937,0.2931,0.2915,0.2863,0.2858,0.2901,0.2899,0.283,0.2823,0.2817,0.2828,0.2791,0.2788,0.2787,0.2739,0.274,0.274,0,0,0,0,0,0,0.2987,0.2984,0.2938,0.2958,0.2953,0.2937,0.2919,0.2915,0.2906,0.2872,0.2864,0.29,0.283,0.2821,0.2793,0.2824,0.2787,0.2784,0.2739,0.2739,0.274,0.2826,0,0,0,0,0,0,0.2988,0.2983,0.2973,0.2958,0.2953,0.2936,0.292,0.2914,0.2916,0.2913,0.2868,0.2861,0.2829,0.2798,0.279,0.2819,0.2782,0.2738,0.2739,0.274,0.2822,0.2829,0.2835,0,0,0,0,0,0.2989,0.2973,0.2972,0.2969,0.2939,0.2937,0.2933,0.2918,0.2916,0.291,0.2879,0.2863,0.2799,0.2795,0.2786,0.2815,0.2737,0.2739,0.274,0.2819,0.2828,0.2835,0,0,0,0,0,0,0.2965,0.2968,0.2966,0.2945,0.2948,0.2933,0.2929,0.2927,0.2897,0.2894,0.2858,0.2848,0.284,0.2809,0.2806,0.2802,0.277,0.2769,0.2834,0.2841,0.2848,0.2861,0.278,0,0,0,0,0,0.2963,0.2953,0.296,0.294,0.295,0.2944,0.2942,0.2936,0.2917,0.2905,0.2883,0.2855,0.2835,0.2823,0.2796,0.2786,0.2802,0.2801,0.2808,0.2814,0.2818,0.286,0.2872,0.2744,0.2744,0.2744,0,0,0.2946,0.2947,0.2939,0.2937,0.2936,0.2949,0.2939,0.2942,0.2948,0.2902,0.2895,0.2876,0.2837,0.2829,0.2824,0.2809,0.2866,0.2815,0.2821,0.2822,0.2863,0.2876,0.2887,0.2745,0.2744,0.2744,0,0,0.2925,0.2916,0.2916,0.2927,0.2945,0.2947,0.2958,0.296,0.2958,0.2946,0.2928,0.2926,0.2882,0.2877,0.2863,0.2887,0.2899,0.2884,0.2928,0.297,0.2982,0.2992,0.3067,0.3083,0.2887,0.2888,0.2888,0,0.292,0.2911,0.2914,0.2929,0.2947,0.2955,0.2974,0.297,0.2962,0.2977,0.2951,0.2937,0.2906,0.2923,0.2928,0.2906,0.294,0.2906,0.2982,0.2992,0.3001,0.3075,0.3092,0.2892,0.2891,0.2891,0.2891,0,0.2902,0.2912,0.2916,0.2941,0.2953,0.297,0.2989,0.3001,0.3006,0.3015,0.3034,0.2997,0.2998,0.2993,0.2959,0.3017,0.3028,0.299,0.297,0.302,0.3094,0.311,0.2898,0.2896,0.2895,0.2894,0,0,0.2872,0.2905,0.2909,0.2941,0.2971,0.2985,0.3006,0.3044,0.308,0.3072,0.3119,0.3088,0.3099,0.3084,0.3068,0.3093,0.3193,0.3071,0.3071,0.3161,0.3323,0.3429,0.3457,0.3175,0.3177,0.3179,0.3365,0,0.2875,0.2909,0.2919,0.2964,0.2997,0.3024,0.3044,0.3076,0.3102,0.3148,0.3149,0.3172,0.3127,0.3139,0.3163,0.3184,0.3232,0.3148,0.3247,0.3251,0.3351,0.3477,0.3317,0.3477,0.338,0.3383,0.3385,0,0.2872,0.2899,0.2941,0.3007,0.3023,0.3046,0.3114,0.3139,0.3202,0.3219,0.3261,0.3268,0.3322,0.3257,0.335,0.3304,0.3323,0.3331,0.3338,0.3414,0.3386,0.3401,0.3509,0.338,0.3409,0.3407,0.3405,0,0.2867,0.2928,0.2966,0.2986,0.3045,0.3074,0.311,0.3168,0.3213,0.3288,0.3339,0.3385,0.3434,0.3455,0.35,0.3428,0.3614,0.3515,0.3635,0.3643,0.3515,0.3509,0.3517,0.3581,0.358,0.358,0.3579,0,0.2883,0.292,0.2974,0.2994,0.3042,0.3091,0.3152,0.3191,0.3278,0.3354,0.3392,0.3467,0.3482,0.3587,0.3579,0.3715,0.3695,0.3691,0.3712,0.3546,0.3541,0.3426,0.3369,0.3587,0.3585,0.3584,0.3583,0,0.2879,0.2914,0.2959,0.302,0.304,0.3078,0.3165,0.3218,0.331,0.3419,0.3451,0.3572,0.3718,0.3781,0.3857,0.3858,0.384,0.3974,0.3813,0.3813,0.3782,0.3736,0.3688,0.3586,0.4128,0.4132,0.4135,0,0.2882,0.2904,0.2955,0.2977,0.3008,0.307,0.3107,0.3202,0.3268,0.3481,0.3536,0.3736,0.3859,0.4085,0.4117,0.4214,0.4001,0.4114,0.3935,0.382,0.3781,0.3593,0.3492,0.3798,0.3799,0.3799,0.3799,0,0.2881,0.2892,0.2924,0.2958,0.3001,0.3042,0.3119,0.3175,0.3316,0.3437,0.3629,0.3767,0.4026,0.4074,0.4252,0.4257,0.3918,0.4128,0.4005,0.356,0.3351,0.3248,0.3666,0.3801,0.3801,0.3801,0.3801,0.3801,0.2869,0.2882,0.2913,0.2947,0.2984,0.3017,0.3027,0.3138,0.3251,0.3407,0.3594,0.3734,0.3908,0.4142,0.4155,0.406,0.4017,0.3881,0.3853,0.3687,0.3527,0.4019,0.4183,0.4185,0.4187,0.4188,0.419,0,0.2845,0.2865,0.2902,0.2922,0.2929,0.2963,0.3028,0.3028,0.3125,0.33,0.3447,0.3592,0.3685,0.3773,0.3834,0.3752,0.3503,0.364,0.3242,0.3168,0.3596,0.3518,0.3549,0.3549,0.3549,0.3549,0.3549,0.3549,0.2832,0.2851,0.2869,0.2864,0.287,0.2834,0.2845,0.2871,0.295,0.3029,0.3087,0.321,0.3434,0.3566,0.349,0.3414,0.3111,0.3033,0.3028,0.3233,0.3247,0.326,0.317,0.3127,0.3127,0.2389,0.2384,0.238]},{"header":{"parameterUnit":"m.s-1","parameterCategory":2,"la1":30.2991,"la2":30.254,"lo1":-89.0895,"lo2":-89.0444,"dy":0.0017,"dx":0.0017,"nx":28,"ny":28,"refTime":"2024-03-21T21:00:00:Z","depth":"0","parameterNumber":3,"parameterNumberName":"V-component_of_CURRENTS"},"data":[0,0,0,0,0,0,0,0,0,0,0,0,0,0,0,0,0,0,0,0,0,0,0,0,0,0,0,0,0,0,0,0,0,0,0,0,0,0,0,0,0,0,0,0,0,0,0,0,0,0,0,0,0,0,0,0,0,0,-0.1303,-0.1304,0,-0.1393,-0.1394,-0.1395,-0.1476,-0.1477,-0.1478,-0.1479,-0.165,-0.1653,-0.1656,0,0,0,0,0,0,0,0,0,0,0,0,0,-0.1314,-0.1313,-0.1303,-0.1304,-0.1305,-0.1392,-0.1394,-0.1395,-0.1476,-0.1477,-0.1478,-0.148,-0.1648,-0.1653,-0.1657,0,0,0,0,0,0,0,0,0,0,0,0,0,-0.1346,-0.1312,-0.1303,-0.1357,-0.1363,-0.1392,-0.1394,-0.1395,-0.1476,-0.1477,-0.1479,-0.148,-0.1647,-0.1652,-0.1657,-0.1659,0,0,-0.1674,-0.1676,0,0,0,0,0,0,0,0,-0.1344,-0.1345,-0.1348,-0.1353,-0.136,-0.1426,-0.146,-0.1488,-0.1475,-0.1432,-0.1479,-0.1481,-0.1581,-0.1592,-0.1603,-0.1667,-0.1674,-0.1674,-0.1677,-0.168,-0.1681,0,0,0,0,0,0,0,-0.1341,-0.1342,-0.1338,-0.1349,-0.1356,-0.1415,-0.142,-0.1466,-0.1497,-0.1436,-0.1442,-0.1453,-0.1585,-0.1598,-0.1608,-0.1676,-0.1674,-0.1679,-0.1682,-0.1684,-0.1749,-0.1748,0,0,0,0,0,0,-0.1324,-0.1339,-0.1335,-0.134,-0.1356,-0.1413,-0.1419,-0.1402,-0.1496,-0.1511,-0.1451,-0.1456,-0.1588,-0.1602,-0.1615,-0.1646,-0.168,-0.1685,-0.1688,-0.1751,-0.1749,-0.1747,0,0,0,0,0,0,-0.1323,-0.1321,-0.1331,-0.1345,-0.135,-0.1411,-0.1392,-0.1403,-0.1415,-0.1507,-0.1524,-0.1452,-0.159,-0.1607,-0.1663,-0.1653,-0.1687,-0.1692,-0.1753,-0.175,-0.1748,-0.1693,0,0,0,0,0,0,-0.1322,-0.132,-0.1294,-0.1342,-0.1349,-0.1339,-0.1391,-0.1404,-0.142,-0.1427,-0.1513,-0.153,-0.1592,-0.1654,-0.1668,-0.166,-0.1696,-0.1754,-0.1752,-0.1749,-0.1697,-0.169,-0.1683,0,0,0,0,0,-0.1322,-0.128,-0.1291,-0.1291,-0.1312,-0.1338,-0.1346,-0.1396,-0.1418,-0.1414,-0.1483,-0.1528,-0.1645,-0.1658,-0.1674,-0.1668,-0.1756,-0.1752,-0.1749,-0.17,-0.1691,-0.1683,0,0,0,0,0,0,-0.1286,-0.1286,-0.1299,-0.1263,-0.1294,-0.1352,-0.1342,-0.1382,-0.1429,-0.1434,-0.1525,-0.1547,-0.1588,-0.1625,-0.1636,-0.1672,-0.1701,-0.17,-0.1657,-0.165,-0.1643,-0.1603,-0.17,0,0,0,0,0,-0.1259,-0.1212,-0.1254,-0.1221,-0.1227,-0.1281,-0.1294,-0.1329,-0.1381,-0.1402,-0.1478,-0.1537,-0.1583,-0.1615,-0.1663,-0.169,-0.1706,-0.1687,-0.168,-0.1675,-0.1649,-0.169,-0.1685,-0.1737,-0.1737,-0.1737,0,0,-0.1232,-0.1228,-0.1201,-0.1208,-0.1227,-0.1236,-0.1291,-0.1297,-0.1317,-0.1413,-0.1461,-0.1521,-0.1583,-0.162,-0.1639,-0.1655,-0.1661,-0.167,-0.1665,-0.1643,-0.1686,-0.1682,-0.1678,-0.1734,-0.1735,-0.1735,0,0,-0.1166,-0.1151,-0.1099,-0.1126,-0.1149,-0.1182,-0.118,-0.1241,-0.1275,-0.1324,-0.1395,-0.1449,-0.1527,-0.1579,-0.1609,-0.1584,-0.1624,-0.1589,-0.1531,-0.1572,-0.1568,-0.1565,-0.1553,-0.155,-0.1587,-0.1586,-0.1586,0,-0.1143,-0.1093,-0.1096,-0.1085,-0.1099,-0.1153,-0.1142,-0.118,-0.1264,-0.1276,-0.1327,-0.1426,-0.1504,-0.153,-0.1536,-0.1571,-0.1578,-0.1566,-0.1564,-0.1562,-0.156,-0.1549,-0.1546,-0.1583,-0.1584,-0.1584,-0.1584,0,-0.1067,-0.1041,-0.1018,-0.101,-0.1018,-0.1019,-0.1073,-0.1081,-0.1129,-0.1188,-0.1231,-0.1338,-0.1389,-0.1427,-0.1486,-0.1498,-0.15,-0.1555,-0.159,-0.1552,-0.1541,-0.1539,-0.1579,-0.158,-0.1581,-0.1582,0,0,-0.1005,-0.0968,-0.0973,-0.0949,-0.0986,-0.0979,-0.0977,-0.0995,-0.0965,-0.108,-0.1073,-0.1194,-0.1249,-0.1283,-0.1363,-0.1415,-0.1431,-0.1474,-0.1477,-0.1466,-0.1475,-0.135,-0.1336,-0.1494,-0.1494,-0.1494,-0.1464,0,-0.0961,-0.0904,-0.0913,-0.0873,-0.0841,-0.0878,-0.0852,-0.0872,-0.091,-0.0923,-0.1036,-0.107,-0.1196,-0.1207,-0.1286,-0.1393,-0.1426,-0.1431,-0.1507,-0.1507,-0.1408,-0.133,-0.1236,-0.119,-0.1462,-0.1462,-0.1461,0,-0.0912,-0.0866,-0.0801,-0.0751,-0.074,-0.0725,-0.0662,-0.0664,-0.0687,-0.0711,-0.0776,-0.0869,-0.0962,-0.1074,-0.1229,-0.1224,-0.1331,-0.1421,-0.1423,-0.1321,-0.1379,-0.1276,-0.1177,-0.138,-0.1459,-0.1459,-0.1459,0,-0.0837,-0.0809,-0.0735,-0.0734,-0.0673,-0.0629,-0.0612,-0.059,-0.0554,-0.0583,-0.0556,-0.0692,-0.074,-0.0908,-0.1103,-0.1168,-0.1248,-0.1367,-0.1341,-0.1333,-0.1269,-0.1254,-0.1376,-0.145,-0.1451,-0.1451,-0.1451,0,-0.0792,-0.0746,-0.0686,-0.064,-0.0527,-0.0534,-0.0421,-0.0404,-0.0373,-0.03,-0.0451,-0.0413,-0.0705,-0.0801,-0.1009,-0.1123,-0.1172,-0.1284,-0.1308,-0.124,-0.1223,-0.1411,-0.1526,-0.1449,-0.145,-0.145,-0.145,0,-0.0724,-0.0694,-0.0585,-0.0499,-0.0473,-0.0387,-0.0307,-0.0229,-0.0201,-0.0107,-0.0107,-0.0207,-0.0288,-0.0527,-0.0763,-0.0952,-0.1161,-0.1134,-0.0995,-0.1001,-0.1172,-0.1284,-0.1339,-0.14,-0.1104,-0.11,-0.1097,0,-0.0674,-0.0606,-0.0474,-0.0398,-0.036,-0.0257,-0.0172,-0.0135,-0.0045,0.0041,0.0104,0.0058,0.0076,-0.0182,-0.0472,-0.071,-0.0972,-0.0832,-0.0951,-0.1113,-0.1261,-0.1355,-0.1413,-0.0849,-0.0845,-0.0841,-0.0838,0,-0.0576,-0.0524,-0.0443,-0.0275,-0.0176,-0.0053,0.0057,0.0171,0.0254,0.038,0.0524,0.0546,0.0344,0.016,-0.0157,-0.0366,-0.0903,-0.0757,-0.0996,-0.109,-0.1132,-0.1223,-0.0919,-0.0804,-0.0807,-0.081,-0.0812,-0.0813,-0.0508,-0.0438,-0.0321,-0.0165,-0.0031,0.0161,0.0317,0.0459,0.0684,0.0941,0.089,0.1037,0.0669,0.0285,-0.0023,-0.0534,-0.0612,-0.0765,-0.089,-0.0973,-0.1017,-0.0577,-0.045,-0.0451,-0.0452,-0.0453,-0.0454,0,-0.0434,-0.0369,-0.0229,-0.0006,0.0199,0.0239,0.0488,0.0691,0.1025,0.1238,0.143,0.1394,0.0976,0.0447,-0.0244,-0.0648,-0.085,-0.09,-0.1089,-0.115,-0.0819,-0.0796,-0.065,-0.065,-0.065,-0.065,-0.065,-0.065,-0.0393,-0.0272,-0.0198,0.0161,0.0341,0.0657,0.0842,0.1128,0.1356,0.1732,0.1887,0.1928,0.1502,0.0181,-0.0755,-0.0977,-0.131,-0.1298,-0.152,-0.1393,-0.1394,-0.1396,-0.1407,-0.1392,-0.1393,-0.1798,-0.1802,-0.1805]}],[{"header":{"parameterUnit":"m.s-1","parameterCategory":2,"la1":30.2991,"la2":30.254,"lo1":-89.0895,"lo2":-89.0444,"dy":0.0017,"dx":0.0017,"nx":28,"ny":28,"refTime":"2024-03-21T21:00:00:Z","depth":"2","parameterNumber":2,"parameterNumberName":"U-component_of_CURRENTS"},"data":[0,0,0,0,0,0,0,0,0,0,0,0,0,0,0,0,0,0,0,0,0,0,0,0,0,0,0,0,0,0,0,0,0,0,0,0,0,0,0,0,0,0,0,0,0,0,0,0,0,0,0,0,0,0,0,0,0,0,0.2505,0.2504,0,0.2573,0.2575,0.2577,0.2729,0.273,0.2732,0.2734,0.2832,0.2833,0.2835,0,0,0,0,0,0,0,0,0,0,0,0,0,0.245,0.2452,0.2505,0.2504,0.2503,0.2573,0.2575,0.2578,0.2729,0.2731,0.2732,0.2734,0.2832,0.2833,0.2835,0,0,0,0,0,0,0,0,0,0,0,0,0,0.2508,0.2453,0.2505,0.2575,0.258,0.2572,0.2575,0.2579,0.2728,0.2731,0.2733,0.2735,0.2831,0.2833,0.2835,0.2798,0,0,0.284,0.2841,0,0,0,0,0,0,0,0,0.2504,0.2512,0.2565,0.257,0.2576,0.263,0.2591,0.2648,0.2728,0.269,0.2734,0.2736,0.2755,0.2763,0.2794,0.2803,0.2807,0.284,0.2841,0.2842,0.2843,0,0,0,0,0,0,0,0.25,0.2509,0.2549,0.2564,0.257,0.2582,0.2596,0.2604,0.2722,0.2693,0.27,0.2681,0.2761,0.2792,0.2797,0.2809,0.284,0.2842,0.2843,0.2844,0.2867,0.2867,0,0,0,0,0,0,0.2459,0.2505,0.2546,0.2549,0.2526,0.2581,0.2596,0.2624,0.2721,0.2733,0.2678,0.2687,0.2788,0.2795,0.2801,0.2844,0.2842,0.2844,0.2845,0.2868,0.2867,0.2867,0,0,0,0,0,0,0.2458,0.2464,0.2543,0.2513,0.2522,0.2578,0.2608,0.2624,0.2675,0.2706,0.2723,0.2714,0.279,0.2799,0.283,0.2845,0.2845,0.2846,0.2868,0.2868,0.2867,0.2876,0,0,0,0,0,0,0.2458,0.2465,0.2496,0.2511,0.2521,0.2568,0.2605,0.2623,0.265,0.2663,0.2741,0.2752,0.2793,0.2827,0.2832,0.2848,0.2847,0.2869,0.2868,0.2867,0.2877,0.2876,0.2876,0,0,0,0,0,0.2456,0.2468,0.2499,0.2503,0.2556,0.2567,0.2578,0.2633,0.2649,0.2688,0.2725,0.2751,0.2826,0.2828,0.2834,0.2851,0.2869,0.2868,0.2867,0.2877,0.2876,0.2876,0,0,0,0,0,0,0.2482,0.2483,0.2518,0.2541,0.2567,0.2588,0.2607,0.2629,0.269,0.2703,0.2744,0.2758,0.2794,0.2805,0.2807,0.2851,0.2851,0.2851,0.2856,0.2856,0.2855,0.2882,0.2849,0,0,0,0,0,0.2491,0.2498,0.2515,0.2539,0.2546,0.2579,0.2592,0.2625,0.2654,0.2687,0.2724,0.2757,0.2788,0.281,0.2839,0.2853,0.2892,0.2865,0.2864,0.2864,0.2887,0.2949,0.2957,0.2864,0.2864,0.2864,0,0,0.2494,0.2502,0.2505,0.2542,0.2566,0.2591,0.2601,0.2618,0.2655,0.2679,0.2742,0.2756,0.2789,0.2826,0.2841,0.2843,0.2908,0.2863,0.2863,0.2887,0.2949,0.2958,0.2967,0.2863,0.2863,0.2863,0,0,0.2486,0.2527,0.2528,0.2554,0.2574,0.2598,0.2599,0.2626,0.2669,0.2695,0.2731,0.2764,0.2786,0.2843,0.2863,0.2869,0.2902,0.2853,0.2881,0.2939,0.2949,0.2957,0.3013,0.3026,0.2856,0.2856,0.2856,0,0.2507,0.2528,0.2533,0.2554,0.2573,0.2598,0.2623,0.2662,0.2699,0.2729,0.2717,0.2779,0.2808,0.2876,0.2883,0.2876,0.2901,0.2884,0.2943,0.2952,0.2961,0.3016,0.3031,0.2856,0.2856,0.2856,0.2856,0,0.2495,0.2539,0.2539,0.2586,0.2608,0.2631,0.2664,0.2703,0.2719,0.2753,0.2803,0.2831,0.2884,0.2876,0.2882,0.2952,0.2947,0.2936,0.2952,0.2972,0.3027,0.3042,0.2856,0.2856,0.2856,0.2856,0,0,0.2476,0.2527,0.2532,0.2566,0.2632,0.2633,0.2701,0.2763,0.2811,0.2831,0.2895,0.2927,0.2942,0.2966,0.2976,0.3008,0.3087,0.299,0.2993,0.306,0.321,0.3113,0.3121,0.3075,0.3078,0.308,0.3222,0,0.2488,0.2521,0.255,0.2599,0.2623,0.2683,0.2745,0.2801,0.285,0.2919,0.2953,0.3006,0.2978,0.2997,0.3036,0.3085,0.3128,0.305,0.3169,0.3174,0.3097,0.3136,0.2916,0.3015,0.3238,0.324,0.3242,0,0.2462,0.2496,0.2543,0.2615,0.2632,0.2669,0.2762,0.2821,0.2938,0.2979,0.3046,0.3078,0.3166,0.3112,0.3232,0.3176,0.3202,0.3216,0.3222,0.3145,0.3106,0.3031,0.3035,0.3269,0.3266,0.3265,0.3263,0,0.2402,0.2479,0.2515,0.2543,0.2638,0.2673,0.2724,0.2834,0.2914,0.3025,0.309,0.3181,0.324,0.3289,0.3329,0.3291,0.3434,0.34,0.334,0.3334,0.318,0.3155,0.348,0.348,0.348,0.3479,0.3479,0,0.2385,0.2409,0.2488,0.2508,0.2571,0.2629,0.2722,0.2793,0.2934,0.3025,0.3118,0.3194,0.3278,0.3363,0.3383,0.3418,0.3498,0.3367,0.337,0.3172,0.3146,0.3388,0.3375,0.3485,0.3483,0.3482,0.3482,0,0.2309,0.237,0.2419,0.2515,0.2547,0.2581,0.2728,0.2788,0.2928,0.3055,0.3095,0.3249,0.3345,0.3423,0.3516,0.3486,0.3525,0.3509,0.3266,0.3235,0.3377,0.3363,0.3484,0.3482,0.3481,0.3479,0.3478,0,0.228,0.2298,0.2404,0.2443,0.2491,0.2569,0.2627,0.2771,0.2835,0.3064,0.3097,0.3259,0.3311,0.344,0.3443,0.3489,0.3522,0.3267,0.3151,0.339,0.3381,0.337,0.3359,0.2961,0.2955,0.2951,0.2948,0,0.2244,0.2283,0.2319,0.2403,0.2458,0.2531,0.2605,0.2657,0.2813,0.2918,0.3022,0.3092,0.3241,0.3174,0.3241,0.3228,0.3243,0.3176,0.3525,0.2972,0.2902,0.2891,0.2896,0.2908,0.2912,0.2915,0.2917,0.2919,0.2218,0.2228,0.2288,0.2334,0.2401,0.2431,0.2443,0.2518,0.2597,0.2684,0.282,0.2853,0.2926,0.2913,0.286,0.2858,0.3064,0.2924,0.2936,0.2954,0.2846,0.2774,0.2738,0.274,0.2743,0.2745,0.2747,0,0.2171,0.2167,0.2218,0.2257,0.2266,0.2354,0.2379,0.2344,0.2338,0.2467,0.2517,0.2371,0.2368,0.2472,0.2421,0.2429,0.2395,0.2325,0.2261,0.2305,0.2343,0.22,0.1923,0.1919,0.1916,0.1913,0,0,0.2147,0.2135,0.2127,0.2101,0.2131,0.2102,0.2084,0.2041,0.2073,0.2043,0.2073,0.2239,0.2387,0.2094,0.2091,0.1994,0.2117,0.1925,0.2602,0.2571,0.2603,0.2724,0.2558,0,0,0,0,0]},{"header":{"parameterUnit":"m.s-1","parameterCategory":2,"la1":30.2991,"la2":30.254,"lo1":-89.0895,"lo2":-89.0444,"dy":0.0017,"dx":0.0017,"nx":28,"ny":28,"refTime":"2024-03-21T21:00:00:Z","depth":"2","parameterNumber":3,"parameterNumberName":"V-component_of_CURRENTS"},"data":[0,0,0,0,0,0,0,0,0,0,0,0,0,0,0,0,0,0,0,0,0,0,0,0,0,0,0,0,0,0,0,0,0,0,0,0,0,0,0,0,0,0,0,0,0,0,0,0,0,0,0,0,0,0,0,0,0,0,0.061,0.0609,0,0.0521,0.0519,0.0518,0.0512,0.0513,0.0514,0.0515,0.0424,0.0421,0.0418,0,0,0,0,0,0,0,0,0,0,0,0,0,0.0753,0.075,0.061,0.0609,0.0608,0.0521,0.0519,0.0518,0.0511,0.0513,0.0514,0.0515,0.0425,0.0421,0.0417,0,0,0,0,0,0,0,0,0,0,0,0,0,0.0678,0.0749,0.0611,0.0596,0.0593,0.0521,0.0519,0.0518,0.0511,0.0513,0.0514,0.0516,0.0427,0.0422,0.0417,0.0351,0,0,0.0401,0.0399,0,0,0,0,0,0,0,0,0.0683,0.0673,0.0599,0.0596,0.0594,0.053,0.0536,0.0462,0.0511,0.0541,0.0515,0.0517,0.0459,0.0452,0.0429,0.0347,0.0343,0.04,0.0397,0.0395,0.0394,0,0,0,0,0,0,0,0.0688,0.0677,0.0573,0.0598,0.0595,0.0586,0.0577,0.0522,0.0491,0.0538,0.0538,0.053,0.0458,0.0434,0.0427,0.0342,0.04,0.0396,0.0393,0.0391,0.0237,0.0236,0,0,0,0,0,0,0.07,0.0681,0.0576,0.0571,0.0645,0.0582,0.0572,0.0548,0.0491,0.0485,0.0528,0.053,0.0442,0.0433,0.0424,0.0358,0.0395,0.039,0.0387,0.0238,0.0237,0.0236,0,0,0,0,0,0,0.0704,0.0691,0.058,0.0627,0.0612,0.0578,0.0551,0.0545,0.0472,0.0484,0.0478,0.0456,0.0443,0.0431,0.0386,0.0354,0.0388,0.0383,0.0239,0.0238,0.0236,0.0217,0,0,0,0,0,0,0.0708,0.0692,0.0636,0.0627,0.061,0.0511,0.0549,0.0542,0.0468,0.0468,0.042,0.0417,0.0443,0.0394,0.0381,0.0348,0.0379,0.024,0.0238,0.0237,0.0218,0.0215,0.0211,0,0,0,0,0,0.0713,0.066,0.0633,0.0618,0.0547,0.0509,0.0497,0.048,0.0462,0.0419,0.0423,0.0415,0.0373,0.0388,0.0373,0.0338,0.0241,0.0239,0.0237,0.022,0.0215,0.0211,0,0,0,0,0,0,0.071,0.0654,0.0625,0.0558,0.0516,0.0508,0.0468,0.0432,0.039,0.0397,0.0393,0.039,0.0345,0.0332,0.0349,0.0291,0.0306,0.0301,0.0299,0.0294,0.0291,0.0325,0.0375,0,0,0,0,0,0.0674,0.061,0.0571,0.0514,0.0494,0.0454,0.0418,0.0408,0.0391,0.037,0.0357,0.0344,0.0325,0.0303,0.0294,0.0235,0.0227,0.0206,0.0202,0.0199,0.0218,0.018,0.0175,0.0229,0.0229,0.0229,0,0,0.0655,0.0619,0.0578,0.0504,0.0479,0.0479,0.0437,0.039,0.0393,0.0367,0.0358,0.032,0.0307,0.0285,0.0259,0.0267,0.0174,0.0197,0.0194,0.0215,0.0178,0.0173,0.0168,0.0227,0.0227,0.0228,0,0,0.064,0.0559,0.0516,0.0506,0.0458,0.0442,0.041,0.0379,0.0356,0.0322,0.0327,0.028,0.0234,0.0245,0.0236,0.0189,0.0158,0.0155,0.0158,0.012,0.0116,0.0112,0.0075,0.0068,0.0152,0.0152,0.0152,0,0.0648,0.0576,0.0497,0.0507,0.0508,0.0428,0.0433,0.0404,0.0366,0.0329,0.0329,0.0247,0.0235,0.0198,0.021,0.0183,0.0148,0.0176,0.0116,0.0113,0.0109,0.0072,0.0065,0.0151,0.0151,0.0151,0.0151,0,0.0619,0.0588,0.0581,0.0564,0.0539,0.053,0.0509,0.0443,0.0389,0.0367,0.0284,0.0265,0.0209,0.0189,0.0194,0.0142,0.012,0.0117,0.013,0.0103,0.0065,0.0057,0.0149,0.0149,0.015,0.015,0,0,0.0646,0.0571,0.0582,0.0592,0.0576,0.0569,0.0534,0.0466,0.0439,0.0365,0.0334,0.0271,0.0205,0.0193,0.0154,0.0133,0.0082,0.0113,0.0111,0.0082,-0.0021,-0.0022,-0.0031,0.0049,0.0048,0.0047,-0.0044,0,0.0673,0.0679,0.0626,0.0667,0.0684,0.0616,0.0595,0.0532,0.0473,0.0437,0.0337,0.0325,0.0223,0.0206,0.014,0.0119,0.0064,0.0107,0.0007,0.0005,0.0011,-0.0038,-0.0014,-0.0093,-0.0051,-0.0053,-0.0053,0,0.0723,0.0695,0.0694,0.0708,0.0705,0.0706,0.0637,0.0612,0.052,0.048,0.0379,0.0343,0.0266,0.0232,0.0077,0.0095,0.0027,0.0004,-0.0001,0.0008,-0.001,-0.0056,-0.0108,-0.0065,-0.0064,-0.0063,-0.0063,0,0.0793,0.0811,0.078,0.0797,0.0744,0.0704,0.0678,0.0597,0.0583,0.0528,0.0538,0.0388,0.0369,0.0226,0.0122,0.0095,0.0006,-0.0039,-0.0122,-0.0123,-0.0111,-0.0109,-0.0135,-0.0134,-0.0134,-0.0134,-0.0134,0,0.0903,0.0905,0.0807,0.0788,0.0787,0.0754,0.0735,0.0682,0.0645,0.0676,0.0562,0.0583,0.0374,0.0294,0.0152,-0.0013,-0.001,-0.0123,-0.0147,-0.012,-0.0118,-0.0089,-0.0082,-0.0137,-0.0137,-0.0136,-0.0135,0,0.1022,0.0932,0.0899,0.0804,0.0806,0.0801,0.0812,0.0815,0.076,0.081,0.0815,0.0724,0.0598,0.0398,0.0232,0.0056,-0.0081,-0.013,-0.0082,-0.01,-0.0205,-0.0198,-0.0278,-0.0278,-0.0279,-0.028,-0.028,0,0.1046,0.1024,0.0928,0.0909,0.0863,0.0868,0.0883,0.086,0.0904,0.0914,0.0972,0.088,0.0831,0.0535,0.0244,-0.004,-0.0058,-0.018,-0.0229,-0.0204,-0.022,-0.0212,-0.0205,-0.0236,-0.0236,-0.0236,-0.0236,0,0.1069,0.1009,0.0979,0.0968,0.0966,0.1006,0.1053,0.112,0.1111,0.1171,0.1236,0.1209,0.0907,0.0614,0.0228,0.0048,-0.0148,-0.0192,-0.0173,-0.0192,-0.0169,-0.0183,-0.0177,-0.0237,-0.0237,-0.0237,-0.0237,-0.0237,0.1058,0.1087,0.1032,0.1067,0.1062,0.1128,0.1214,0.129,0.138,0.146,0.1427,0.1367,0.1029,0.0503,0.0186,-0.016,-0.0161,-0.028,-0.0278,-0.0277,-0.0244,-0.0222,-0.0295,-0.0295,-0.0295,-0.0295,-0.0296,0,0.1075,0.1134,0.1153,0.1163,0.1196,0.1184,0.1316,0.1401,0.1556,0.1588,0.1607,0.1292,0.0948,0.0565,0.0039,-0.0263,-0.0288,-0.0342,-0.0315,-0.0311,-0.0309,-0.0278,-0.0338,-0.0339,-0.034,-0.0341,0,0,0.1063,0.1142,0.1207,0.127,0.1285,0.1373,0.1458,0.1579,0.1637,0.1684,0.1624,0.1487,0.1039,0.0653,0.0238,-0.0054,-0.0106,-0.0102,-0.0034,0.0052,0.0058,-0.024,-0.0184,0,0,0,0,0]}],[{"header":{"parameterUnit":"m.s-1","parameterCategory":2,"la1":30.2991,"la2":30.254,"lo1":-89.0895,"lo2":-89.0444,"dy":0.0017,"dx":0.0017,"nx":28,"ny":28,"refTime":"2024-03-21T21:00:00:Z","depth":"4","parameterNumber":2,"parameterNumberName":"U-component_of_CURRENTS"},"data":[0,0,0,0,0,0,0,0,0,0,0,0,0,0,0,0,0,0,0,0,0,0,0,0,0,0,0,0,0,0,0,0,0,0,0,0,0,0,0,0,0,0,0,0,0,0,0,0,0,0,0,0,0,0,0,0,0,0,0.1129,0.113,0,0.1192,0.1192,0.1193,0.1237,0.1238,0.1239,0.1239,0.1329,0.133,0.1332,0,0,0,0,0,0,0,0,0,0,0,0,0,0.099,0.0992,0.1129,0.113,0.1131,0.1192,0.1192,0.1193,0.1237,0.1238,0.1239,0.124,0.1328,0.133,0.1332,0,0,0,0,0,0,0,0,0,0,0,0,0,0.1047,0.0993,0.1129,0.1164,0.1168,0.1192,0.1192,0.1193,0.1237,0.1238,0.1239,0.124,0.1327,0.133,0.1332,0.1325,0,0,0.134,0.1341,0,0,0,0,0,0,0,0,0.1044,0.1051,0.1158,0.1162,0.1166,0.1212,0.1176,0.124,0.1236,0.1206,0.1239,0.1241,0.1294,0.1299,0.1302,0.1329,0.1333,0.134,0.1342,0.1343,0.1343,0,0,0,0,0,0,0,0.104,0.1049,0.1149,0.1159,0.1164,0.1158,0.1167,0.1188,0.124,0.1209,0.1213,0.1227,0.1296,0.1299,0.1304,0.1334,0.134,0.1342,0.1344,0.1345,0.144,0.1441,0,0,0,0,0,0,0.1043,0.1045,0.1147,0.1152,0.1112,0.116,0.117,0.1192,0.1239,0.1248,0.1226,0.1229,0.1294,0.1301,0.1308,0.1383,0.1343,0.1345,0.1346,0.1439,0.1441,0.1442,0,0,0,0,0,0,0.104,0.1052,0.1145,0.1103,0.1115,0.1162,0.1186,0.1193,0.1229,0.1253,0.1262,0.1259,0.1296,0.1304,0.1365,0.1384,0.1346,0.1348,0.1438,0.144,0.1441,0.1482,0,0,0,0,0,0,0.1036,0.1051,0.1071,0.1104,0.1118,0.1174,0.1186,0.1194,0.1236,0.1241,0.1283,0.1291,0.1297,0.1362,0.1368,0.1387,0.135,0.1437,0.1439,0.1441,0.148,0.1485,0.149,0,0,0,0,0,0.1031,0.1048,0.1071,0.1084,0.1143,0.1175,0.1182,0.1214,0.1237,0.1251,0.1295,0.1291,0.1377,0.1365,0.1372,0.1392,0.1436,0.1438,0.144,0.1477,0.1484,0.149,0,0,0,0,0,0,0.1003,0.1056,0.1082,0.1117,0.1154,0.1185,0.1197,0.1231,0.1274,0.1291,0.1314,0.1325,0.1386,0.1383,0.1369,0.1424,0.1402,0.1405,0.1427,0.1434,0.1439,0.1498,0.1352,0,0,0,0,0,0.1006,0.1033,0.1083,0.1115,0.1128,0.117,0.1191,0.1225,0.1266,0.1287,0.1323,0.1358,0.1393,0.1412,0.1441,0.1472,0.149,0.1486,0.1491,0.1495,0.1548,0.1577,0.159,0.1449,0.1449,0.1449,0,0,0.1006,0.1039,0.1057,0.111,0.1134,0.1169,0.1184,0.1226,0.1272,0.1289,0.1359,0.1388,0.141,0.1453,0.1477,0.1457,0.1539,0.1498,0.1502,0.1554,0.1581,0.1595,0.1607,0.1451,0.1451,0.145,0,0,0.1011,0.1045,0.1067,0.1096,0.115,0.1179,0.1201,0.1256,0.1292,0.136,0.1388,0.145,0.1483,0.1519,0.1535,0.1588,0.1574,0.157,0.1636,0.1661,0.1674,0.1685,0.1702,0.1714,0.156,0.156,0.156,0,0.1012,0.1054,0.1078,0.1106,0.1139,0.1189,0.1229,0.1267,0.1346,0.1384,0.1391,0.1495,0.1525,0.159,0.1623,0.1605,0.1608,0.1607,0.167,0.1681,0.1692,0.1707,0.172,0.1562,0.1562,0.1561,0.1561,0,0.102,0.1073,0.1082,0.1141,0.1176,0.1216,0.1275,0.1322,0.1376,0.1429,0.1521,0.157,0.1633,0.1638,0.1662,0.1744,0.1717,0.1679,0.1656,0.1709,0.172,0.1733,0.1565,0.1564,0.1564,0.1563,0,0,0.0994,0.1075,0.1088,0.1125,0.1204,0.1231,0.1301,0.138,0.1418,0.1513,0.159,0.1685,0.1725,0.1751,0.1769,0.1817,0.1902,0.1796,0.1796,0.1818,0.1953,0.1838,0.184,0.186,0.1863,0.1866,0.1921,0,0.1005,0.1063,0.1111,0.1185,0.1219,0.1283,0.134,0.142,0.1471,0.1551,0.1647,0.1728,0.1754,0.1792,0.1851,0.1894,0.1943,0.1892,0.1897,0.1899,0.1793,0.1855,0.1876,0.193,0.1933,0.1936,0.1937,0,0.1,0.1047,0.1114,0.1212,0.1231,0.1289,0.1366,0.1425,0.1537,0.1577,0.1676,0.175,0.1889,0.1885,0.2002,0.1959,0.1992,0.2017,0.2016,0.192,0.181,0.1872,0.1961,0.1959,0.1957,0.1956,0.1954,0,0.0953,0.1053,0.1108,0.1138,0.1246,0.1298,0.1364,0.1448,0.1509,0.1613,0.1674,0.1796,0.19,0.1956,0.2046,0.2025,0.2152,0.2098,0.2027,0.2017,0.2085,0.2073,0.2199,0.2199,0.2199,0.2199,0.2199,0,0.0937,0.099,0.1095,0.1125,0.1196,0.128,0.1353,0.1406,0.1526,0.16,0.1705,0.1783,0.1934,0.2027,0.2063,0.2088,0.2152,0.2082,0.2039,0.2094,0.2083,0.2092,0.2079,0.2201,0.22,0.22,0.22,0,0.0885,0.0955,0.1014,0.113,0.118,0.1223,0.1377,0.1413,0.1516,0.1618,0.1683,0.184,0.1937,0.2041,0.2145,0.2107,0.2129,0.2121,0.2193,0.2146,0.1974,0.1962,0.2043,0.204,0.2037,0.2035,0.2033,0,0.0858,0.0888,0.1,0.1034,0.11,0.1193,0.1259,0.1395,0.1431,0.1623,0.1666,0.1853,0.1934,0.1978,0.2075,0.2112,0.2105,0.2088,0.2052,0.2017,0.1966,0.1959,0.1951,0.2028,0.2028,0.2027,0.2026,0,0.0807,0.0849,0.0901,0.0966,0.1039,0.1106,0.1213,0.1262,0.1405,0.153,0.1626,0.1727,0.1843,0.1922,0.1978,0.1996,0.2074,0.2059,0.2065,0.203,0.1999,0.195,0.1946,0.2017,0.2018,0.2019,0.2019,0,0.0757,0.0767,0.0827,0.0888,0.0946,0.0986,0.1077,0.1163,0.1254,0.147,0.15,0.1669,0.182,0.1864,0.1897,0.1923,0.191,0.1844,0.1861,0.1873,0.1796,0.173,0.1661,0,0,0,0,0,0.0694,0.071,0.0747,0.0791,0.084,0.0894,0.1013,0.1105,0.1273,0.1304,0.1407,0.15,0.1618,0.1701,0.1701,0.1833,0.1909,0.1824,0.1838,0.1963,0.1974,0.1903,0,0,0,0,0,0,0.0654,0.0677,0.0709,0.0691,0.0716,0.0772,0.0856,0.0996,0.1014,0.1195,0.1261,0.1399,0.1524,0.1601,0.1667,0.1695,0.1673,0.1933,0.1929,0.1957,0.1967,0.1976,0.1906,0,0,0,0,0]},{"header":{"parameterUnit":"m.s-1","parameterCategory":2,"la1":30.2991,"la2":30.254,"lo1":-89.0895,"lo2":-89.0444,"dy":0.0017,"dx":0.0017,"nx":28,"ny":28,"refTime":"2024-03-21T21:00:00:Z","depth":"4","parameterNumber":3,"parameterNumberName":"V-component_of_CURRENTS"},"data":[0,0,0,0,0,0,0,0,0,0,0,0,0,0,0,0,0,0,0,0,0,0,0,0,0,0,0,0,0,0,0,0,0,0,0,0,0,0,0,0,0,0,0,0,0,0,0,0,0,0,0,0,0,0,0,0,0,0,0.0552,0.0551,0,0.0511,0.051,0.0509,0.0485,0.0486,0.0486,0.0486,0.0431,0.0429,0.0427,0,0,0,0,0,0,0,0,0,0,0,0,0,0.0565,0.0565,0.0552,0.0551,0.0551,0.0511,0.051,0.0509,0.0485,0.0486,0.0486,0.0486,0.0431,0.0429,0.0427,0,0,0,0,0,0,0,0,0,0,0,0,0,0.0542,0.0565,0.0552,0.0537,0.0536,0.0511,0.051,0.0509,0.0485,0.0486,0.0486,0.0486,0.0432,0.043,0.0427,0.0404,0,0,0.0419,0.0418,0,0,0,0,0,0,0,0,0.0543,0.0541,0.054,0.0538,0.0537,0.0507,0.0494,0.0474,0.0485,0.0501,0.0486,0.0487,0.0457,0.0452,0.0439,0.0401,0.0399,0.0419,0.0417,0.0416,0.0416,0,0,0,0,0,0,0,0.0545,0.0542,0.0531,0.054,0.0538,0.0518,0.0515,0.049,0.0474,0.0499,0.0498,0.05,0.0456,0.0441,0.0437,0.0398,0.0419,0.0417,0.0415,0.0414,0.0358,0.0358,0,0,0,0,0,0,0.0559,0.0544,0.0533,0.0531,0.0545,0.0518,0.0515,0.0513,0.0475,0.047,0.0499,0.0499,0.0445,0.044,0.0435,0.0433,0.0416,0.0414,0.0412,0.0358,0.0358,0.0358,0,0,0,0,0,0,0.056,0.0559,0.0535,0.0539,0.0536,0.0518,0.0516,0.0512,0.0511,0.0476,0.047,0.0504,0.0446,0.0439,0.0419,0.043,0.0413,0.041,0.0358,0.0358,0.0358,0.0412,0,0,0,0,0,0,0.056,0.0559,0.0565,0.054,0.0536,0.0526,0.0516,0.0511,0.0512,0.0511,0.0478,0.0472,0.0445,0.0423,0.0416,0.0426,0.0408,0.0358,0.0358,0.0358,0.041,0.0414,0.0417,0,0,0,0,0,0.0561,0.0563,0.0565,0.0564,0.0544,0.0527,0.0522,0.0508,0.0512,0.0509,0.0488,0.0474,0.0419,0.0421,0.0413,0.0423,0.0358,0.0358,0.0358,0.0408,0.0413,0.0417,0,0,0,0,0,0,0.0567,0.0561,0.0562,0.0562,0.0552,0.0524,0.0521,0.0518,0.0498,0.0503,0.0471,0.0463,0.045,0.0427,0.0429,0.0406,0.0388,0.0386,0.0428,0.0432,0.0436,0.0467,0.0406,0,0,0,0,0,0.0574,0.0577,0.0566,0.0566,0.0563,0.0548,0.0542,0.0537,0.0518,0.051,0.0488,0.0464,0.0441,0.0431,0.0404,0.039,0.0361,0.0392,0.0395,0.0398,0.0418,0.0369,0.037,0.0358,0.0358,0.0358,0,0,0.0579,0.0575,0.0578,0.0569,0.0559,0.056,0.0544,0.0542,0.0547,0.0507,0.0503,0.0476,0.044,0.0424,0.0416,0.0408,0.0384,0.0398,0.0402,0.042,0.0369,0.037,0.0371,0.0358,0.0358,0.0358,0,0,0.0587,0.0585,0.0593,0.0586,0.0583,0.0575,0.0581,0.0565,0.0561,0.0553,0.0527,0.0512,0.0473,0.0453,0.0437,0.0445,0.0403,0.0433,0.0477,0.0428,0.0429,0.0429,0.0386,0.0382,0.0435,0.0435,0.0435,0,0.0598,0.0604,0.0591,0.0594,0.0598,0.0588,0.06,0.059,0.0572,0.0569,0.0561,0.0517,0.0491,0.0475,0.0482,0.0456,0.0419,0.0465,0.0434,0.0434,0.0433,0.0388,0.0383,0.0438,0.0438,0.0437,0.0437,0,0.0602,0.0619,0.062,0.0628,0.0627,0.0633,0.0627,0.0627,0.0627,0.0617,0.0605,0.0568,0.0543,0.0532,0.0513,0.0499,0.0471,0.0443,0.0427,0.0438,0.0389,0.0383,0.0442,0.0441,0.044,0.0439,0,0,0.0609,0.0625,0.0631,0.065,0.065,0.0652,0.066,0.0663,0.0662,0.0656,0.0657,0.0632,0.0617,0.0599,0.0568,0.054,0.0505,0.05,0.0497,0.0465,0.0396,0.0331,0.0317,0.0464,0.0464,0.0463,0.0361,0,0.0625,0.0655,0.0653,0.0688,0.0705,0.0699,0.0708,0.0709,0.0687,0.0679,0.0667,0.0655,0.0638,0.0629,0.0599,0.0526,0.0492,0.0536,0.0385,0.0381,0.0327,0.031,0.0461,0.0356,0.0355,0.0354,0.0353,0,0.0632,0.0658,0.0697,0.0734,0.0739,0.0762,0.0765,0.0766,0.0748,0.0728,0.0714,0.0692,0.0677,0.0653,0.0551,0.0575,0.0501,0.0445,0.0439,0.0361,0.0305,0.0343,0.0341,0.0342,0.0343,0.0344,0.0345,0,0.0648,0.0689,0.073,0.0738,0.0771,0.0797,0.0817,0.0796,0.0805,0.0768,0.0767,0.0718,0.0709,0.062,0.0518,0.0528,0.0386,0.0374,0.0248,0.0242,0.031,0.0311,0.03,0.03,0.03,0.03,0.0301,0,0.066,0.0698,0.0752,0.0776,0.083,0.0838,0.0868,0.0857,0.0861,0.0865,0.0812,0.0796,0.0701,0.0614,0.0514,0.0355,0.0373,0.0258,0.021,0.0333,0.0338,0.0305,0.0307,0.0297,0.0297,0.0298,0.0299,0,0.0667,0.07,0.0748,0.0809,0.0843,0.0878,0.0946,0.0957,0.0941,0.0943,0.0953,0.0872,0.0733,0.0609,0.044,0.0347,0.0202,0.0139,0.0278,0.024,0.0096,0.0102,-0.0002,-0.0005,-0.0008,-0.001,-0.0012,0,0.0665,0.0698,0.078,0.0825,0.0865,0.093,0.0982,0.1004,0.1003,0.0976,0.0979,0.0877,0.0792,0.0513,0.0365,0.0139,0.0112,0.0037,0.0083,0.0101,0.0065,0.0075,0.0084,-0.0016,-0.0017,-0.0017,-0.0018,0,0.0667,0.0703,0.0751,0.0847,0.0921,0.0985,0.1053,0.107,0.1068,0.1068,0.0986,0.0859,0.0684,0.0485,0.0294,0.0141,0.0087,0.0009,0.0015,0.0057,0.0082,0.0051,0.0064,-0.0027,-0.0026,-0.0025,-0.0025,0,0.0666,0.0698,0.0774,0.086,0.0941,0.101,0.1051,0.1065,0.1081,0.1043,0.1008,0.0842,0.0749,0.0483,0.0311,0.0141,0.0113,0.0079,0.008,0.0089,0.0141,0.0187,0.0068,0,0,0,0,0,0.0657,0.0713,0.0789,0.0874,0.0954,0.1012,0.1078,0.1103,0.1104,0.1049,0.1031,0.0864,0.0603,0.049,0.0309,0.0262,0.0083,0.0042,0.0044,-0.0079,-0.0068,-0.0029,0,0,0,0,0,0,0.0655,0.0724,0.0778,0.0872,0.0936,0.1028,0.1072,0.1092,0.1042,0.102,0.0879,0.0814,0.0556,0.0707,0.0305,0.0252,0.0227,-0.0078,-0.0083,-0.0085,-0.0076,-0.0067,-0.0022,0,0,0,0,0]}]]